When you browse on this site, cookies collect data to enhance your experience and personalize the content and advertising you see.
Visit our Privacy Policy to learn more. By continuing to use the site, you agree to this use of cookies and data.
  • In Portugal
  • List of Countries
  • For 7 days
  • Water Temperature
  • Satellite Maps
  • Weather Map
  • Weather Widgets
  • user-avatar
    Login

    Hourly Weather Tottori

    Today, 23 April, Tuesday

    Time Temperature Precipitation Wind Pressure Humidity
    00:00 +11°C° 0 mm 1 mps 731 mmHg 75%
    01:00 +11°C° 0 mm 1 mps 731 mmHg 72%
    02:00 +11°C° 0 mm 1 mps 731 mmHg 68%
    03:00 +11°C° 0 mm 1 mps 731 mmHg 68%
    04:00 +12°C° 0 mm 1 mps 731 mmHg 65%
    05:00 +12°C° 0 mm 1 mps 731 mmHg 62%
    06:00 +12°C° 0 mm 1 mps 731 mmHg 59%
    07:00 +15°C° 0 mm 1 mps 731 mmHg 54%
    08:00 +18°C° 0 mm 2 mps 731 mmHg 49%
    09:00 +20°C° 0 mm 2 mps 732 mmHg 41%
    10:00 +23°C° 0 mm 2 mps 732 mmHg 39%
    11:00 +24°C° 0 mm 3 mps 731 mmHg 36%
    12:00 +25°C° 0 mm 3 mps 731 mmHg 34%
    13:00 +25°C° 0 mm 3 mps 731 mmHg 41%
    14:00 +23°C° 0 mm 4 mps 731 mmHg 48%
    15:00 +23°C° 0 mm 4 mps 731 mmHg 55%
    16:00 +21°C° 0 mm 4 mps 731 mmHg 64%
    17:00 +20°C° 0 mm 4 mps 731 mmHg 74%
    18:00 +19°C° 0 mm 3 mps 730 mmHg 83%
    19:00 +18°C° 0.6 mm 3 mps 731 mmHg 87%
    20:00 +18°C° 0.6 mm 3 mps 731 mmHg 90%
    21:00 +17°C° 0.6 mm 3 mps 731 mmHg 94%
    22:00 +17°C° 1.8 mm 4 mps 731 mmHg 94%
    23:00 +17°C° 1.8 mm 4 mps 730 mmHg 94%

    Tomorrow, 24 April, Wednesday

    Time Temperature Precipitation Wind Pressure Humidity
    00:00 +15°C° 1.8 mm 4 mps 730 mmHg 94%
    01:00 +15°C° 2.8 mm 4 mps 730 mmHg 94%
    02:00 +15°C° 2.8 mm 5 mps 729 mmHg 94%
    03:00 +15°C° 2.8 mm 5 mps 729 mmHg 94%
    04:00 +15°C° 0.5 mm 5 mps 729 mmHg 94%
    05:00 +15°C° 0.5 mm 6 mps 728 mmHg 94%
    06:00 +15°C° 0.5 mm 6 mps 728 mmHg 93%
    07:00 +16°C° 0.4 mm 7 mps 728 mmHg 93%
    08:00 +16°C° 0.4 mm 7 mps 727 mmHg 92%
    09:00 +16°C° 0.4 mm 7 mps 727 mmHg 91%
    10:00 +17°C° 0.3 mm 7 mps 727 mmHg 90%
    11:00 +17°C° 0.3 mm 7 mps 727 mmHg 90%
    12:00 +17°C° 0.3 mm 7 mps 726 mmHg 89%
    13:00 +19°C° 0.5 mm 6 mps 726 mmHg 90%
    14:00 +19°C° 0.5 mm 6 mps 725 mmHg 91%
    15:00 +19°C° 0.5 mm 6 mps 725 mmHg 92%
    16:00 +19°C° 1 mm 5 mps 724 mmHg 94%
    17:00 +19°C° 1 mm 4 mps 724 mmHg 95%
    18:00 +19°C° 1 mm 3 mps 724 mmHg 96%
    19:00 +19°C° 0.7 mm 3 mps 724 mmHg 97%
    20:00 +19°C° 0.7 mm 2 mps 724 mmHg 97%
    21:00 +20°C° 0.7 mm 1 mps 724 mmHg 98%
    22:00 +19°C° 0.7 mm 1 mps 724 mmHg 98%
    23:00 +19°C° 0.7 mm 1 mps 724 mmHg 98%

    Day after tomorrow, 25 April, Thursday

    Time Temperature Precipitation Wind Pressure Humidity
    00:00 +17°C° 0.7 mm 0 mps 724 mmHg 98%
    01:00 +16°C° 0.2 mm 0 mps 723 mmHg 98%
    02:00 +18°C° 0.2 mm 1 mps 723 mmHg 98%
    03:00 +18°C° 0.2 mm 1 mps 722 mmHg 98%
    04:00 +18°C° 0 mm 1 mps 723 mmHg 98%
    05:00 +18°C° 0 mm 1 mps 723 mmHg 98%
    06:00 +18°C° 0 mm 1 mps 723 mmHg 98%
    07:00 +18°C° 0.1 mm 1 mps 723 mmHg 96%
    08:00 +19°C° 0.1 mm 1 mps 723 mmHg 93%
    09:00 +18°C° 0.1 mm 2 mps 723 mmHg 91%
    10:00 +18°C° 0.1 mm 2 mps 723 mmHg 91%
    11:00 +17°C° 0.1 mm 2 mps 723 mmHg 91%
    12:00 +17°C° 0.1 mm 2 mps 723 mmHg 91%
    13:00 +18°C° 0 mm 2 mps 723 mmHg 84%
    14:00 +19°C° 0 mm 2 mps 722 mmHg 78%
    15:00 +21°C° 0 mm 2 mps 722 mmHg 72%
    16:00 +19°C° 0 mm 2 mps 722 mmHg 77%
    17:00 +18°C° 0 mm 2 mps 722 mmHg 82%
    18:00 +16°C° 0 mm 2 mps 722 mmHg 88%
    19:00 +16°C° 0 mm 2 mps 722 mmHg 90%
    20:00 +15°C° 0 mm 2 mps 722 mmHg 92%
    21:00 +14°C° 0 mm 2 mps 722 mmHg 94%
    22:00 +14°C° 0 mm 1 mps 722 mmHg 94%
    23:00 +14°C° 0 mm 1 mps 722 mmHg 94%

    26 April, Friday

    Time Temperature Precipitation Wind Pressure Humidity
    00:00 +14°C° 0 mm 1 mps 722 mmHg 94%
    01:00 +14°C° 0.1 mm 1 mps 722 mmHg 94%
    02:00 +13°C° 0.1 mm 1 mps 722 mmHg 95%
    03:00 +13°C° 0.1 mm 1 mps 722 mmHg 95%
    04:00 +13°C° 0.2 mm 2 mps 722 mmHg 95%
    05:00 +13°C° 0.2 mm 2 mps 722 mmHg 96%
    06:00 +13°C° 0.2 mm 2 mps 723 mmHg 96%
    07:00 +12°C° 0.6 mm 2 mps 724 mmHg 96%
    08:00 +12°C° 0.6 mm 2 mps 724 mmHg 96%
    09:00 +10°C° 0.6 mm 3 mps 725 mmHg 95%
    10:00 +10°C° 0.1 mm 3 mps 725 mmHg 93%
    11:00 +10°C° 0.1 mm 3 mps 726 mmHg 90%
    12:00 +10°C° 0.1 mm 4 mps 726 mmHg 87%
    13:00 +10°C° 0.1 mm 4 mps 726 mmHg 84%
    14:00 +10°C° 0.1 mm 4 mps 727 mmHg 80%
    15:00 +10°C° 0.1 mm 4 mps 727 mmHg 77%
    16:00 +10°C° 0.1 mm 4 mps 727 mmHg 80%
    17:00 +9°C° 0.1 mm 3 mps 727 mmHg 82%
    18:00 +8°C° 0.1 mm 3 mps 728 mmHg 85%
    19:00 +8°C° 0.1 mm 3 mps 728 mmHg 85%
    20:00 +7°C° 0.1 mm 3 mps 729 mmHg 86%
    21:00 +7°C° 0.1 mm 3 mps 730 mmHg 87%
    22:00 +7°C° 0.1 mm 3 mps 730 mmHg 87%
    23:00 +5°C° 0.1 mm 3 mps 730 mmHg 88%

    27 April, Saturday

    Time Temperature Precipitation Wind Pressure Humidity
    00:00 +6°C° 0.1 mm 2 mps 730 mmHg 89%
    01:00 +5°C° 0.1 mm 3 mps 730 mmHg 89%
    02:00 +5°C° 0.1 mm 3 mps 730 mmHg 89%
    03:00 +5°C° 0.1 mm 3 mps 730 mmHg 88%
    04:00 +5°C° 0.2 mm 3 mps 731 mmHg 89%
    05:00 +5°C° 0.2 mm 3 mps 731 mmHg 89%
    06:00 +5°C° 0.2 mm 3 mps 732 mmHg 89%
    07:00 +7°C° 0.1 mm 3 mps 732 mmHg 85%
    08:00 +7°C° 0.1 mm 3 mps 733 mmHg 81%
    09:00 +7°C° 0.1 mm 4 mps 733 mmHg 77%
    10:00 +8°C° 0.1 mm 4 mps 734 mmHg 69%
    11:00 +10°C° 0.1 mm 4 mps 734 mmHg 61%
    12:00 +11°C° 0.1 mm 4 mps 734 mmHg 54%
    13:00 +12°C° 0 mm 4 mps 734 mmHg 51%
    14:00 +12°C° 0 mm 4 mps 734 mmHg 49%
    15:00 +12°C° 0 mm 4 mps 734 mmHg 46%
    16:00 +11°C° 0 mm 3 mps 734 mmHg 52%
    17:00 +10°C° 0 mm 3 mps 734 mmHg 57%
    18:00 +9°C° 0 mm 2 mps 735 mmHg 63%
    19:00 +7°C° 0 mm 2 mps 735 mmHg 69%
    20:00 +7°C° 0 mm 1 mps 735 mmHg 76%
    21:00 +5°C° 0 mm 1 mps 736 mmHg 83%
    22:00 +5°C° 0 mm 1 mps 736 mmHg 84%
    23:00 +5°C° 0 mm 1 mps 736 mmHg 85%

    28 April, Sunday

    Time Temperature Precipitation Wind Pressure Humidity
    00:00 +4°C° 0 mm 1 mps 736 mmHg 85%
    01:00 +4°C° 0 mm 1 mps 736 mmHg 84%
    02:00 +4°C° 0 mm 1 mps 736 mmHg 84%
    03:00 +4°C° 0 mm 1 mps 735 mmHg 83%
    04:00 +4°C° 0 mm 1 mps 736 mmHg 79%
    05:00 +4°C° 0 mm 1 mps 736 mmHg 75%
    06:00 +5°C° 0 mm 1 mps 736 mmHg 72%
    07:00 +8°C° 0 mm 1 mps 737 mmHg 60%
    08:00 +12°C° 0 mm 1 mps 737 mmHg 48%
    09:00 +16°C° 0 mm 1 mps 738 mmHg 36%
    10:00 +18°C° 0 mm 1 mps 737 mmHg 34%
    11:00 +19°C° 0 mm 1 mps 737 mmHg 32%
    12:00 +21°C° 0 mm 1 mps 737 mmHg 30%
    13:00 +19°C° 0 mm 2 mps 736 mmHg 32%
    14:00 +19°C° 0 mm 2 mps 736 mmHg 33%
    15:00 +19°C° 0 mm 2 mps 736 mmHg 35%
    16:00 +17°C° 0 mm 2 mps 735 mmHg 42%
    17:00 +15°C° 0 mm 2 mps 735 mmHg 49%
    18:00 +13°C° 0 mm 1 mps 735 mmHg 56%
    19:00 +13°C° 0 mm 1 mps 735 mmHg 53%
    20:00 +12°C° 0 mm 2 mps 735 mmHg 51%
    21:00 +10°C° 0 mm 2 mps 735 mmHg 48%
    22:00 +10°C° 0 mm 2 mps 735 mmHg 50%
    23:00 +10°C° 0 mm 2 mps 735 mmHg 52%
    Show more